EW4504 Weather Reports


time (UTC)temp
F
wind
direction
speed
knots
gust
knots
rain 1hr
in
rain 24hr
in
rain mn
in
humidity
%
barometer
mb
20260507082032 63 0 0.0 2.6 0.15 1.62 0.71 95 1010.8
20260507081541 63 0 0.0 2.6 0.15 1.61 0.70 95 1010.6
20260507081032 63 97 0.0 2.6 0.14 1.59 0.68 95 1010.4
20260507080531 63 0 0.0 1.7 0.14 1.58 0.67 95 1010.9
20260507080043 63 97 0.0 0.9 0.15 1.57 0.66 95 1010.7
20260507075532 63 0 0.0 0.9 0.15 1.56 0.65 95 1011.0
20260507075036 63 0 0.0 2.6 0.15 1.55 0.64 95 1010.9
20260507074543 63 0 0.0 3.5 0.14 1.53 0.62 95 1010.9
20260507074031 63 97 0.9 3.5 0.15 1.52 0.61 95 1010.8
20260507073532 63 73 0.0 2.6 0.15 1.51 0.60 95 1010.7
20260507073043 63 0 0.0 2.6 0.15 1.50 0.58 95 1011.0
20260507072535 63 273 0.9 3.5 0.15 1.48 0.57 95 1011.2
20260507072030 63 274 0.9 3.5 0.15 1.47 0.56 95 1011.5
20260507071542 63 40 0.0 4.3 0.16 1.46 0.55 95 1011.6
20260507071031 63 54 1.7 4.3 0.16 1.45 0.54 95 1011.5
20260507070533 63 61 1.7 4.3 0.16 1.44 0.52 95 1011.5
20260507070044 63 196 0.0 2.6 0.16 1.42 0.51 95 1011.6
20260507065531 63 196 0.0 2.6 0.16 1.41 0.50 95 1011.6
20260507065030 63 196 1.7 2.6 0.17 1.40 0.49 95 1011.3
20260507064541 63 0 0.0 2.6 0.17 1.39 0.48 95 1011.6
20260507064032 63 199 0.9 3.5 0.17 1.37 0.46 95 1011.8
20260507063531 63 0 0.0 3.5 0.17 1.36 0.45 95 1011.6
20260507063046 63 163 0.9 3.5 0.18 1.35 0.44 95 1011.6
20260507062530 63 0 0.9 4.3 0.17 1.33 0.42 95 1011.4
20260507062032 63 0 0.9 4.3 0.18 1.32 0.41 95 1011.6
20260507061546 63 46 1.7 4.3 0.17 1.30 0.39 94 1011.8
20260507061029 63 91 0.0 1.7 0.18 1.29 0.38 94 1011.9
20260507060531 63 0 0.0 2.6 0.17 1.27 0.36 95 1012.1
20260507060051 63 92 0.0 2.6 0.18 1.26 0.35 94 1012.1
20260507055534 63 92 0.9 2.6 0.19 1.25 0.34 95 1012.3
20260507055029 63 92 0.0 1.7 0.18 1.23 0.32 95 1012.4
20260507054547 63 92 0.0 2.6 0.19 1.22 0.31 94 1012.3
20260507054032 63 0 0.0 3.5 0.18 1.20 0.29 94 1012.4
20260507053530 63 0 0.0 5.2 0.19 1.19 0.28 94 1012.4
20260507053047 63 123 1.7 5.2 0.18 1.16 0.26 94 1012.1
20260507052530 63 128 0.9 3.5 0.19 1.16 0.25 94 1012.3
20260507052031 63 0 0.9 2.6 0.18 1.14 0.23 94 1012.7
20260507051549 63 0 0.0 2.6 0.17 1.12 0.21 94 1012.8
20260507051034 63 122 0.9 1.7 0.18 1.11 0.20 94 1012.7
20260507050531 63 122 0.0 1.7 0.17 1.09 0.18 94 1012.9
20260507050051 63 0 0.0 0.9 0.17 1.08 0.17 94 1013.1
20260507045530 63 122 0.0 2.6 0.16 1.05 0.15 94 1013.1
20260507045030 63 0 0.0 3.5 0.16 1.04 0.14 94 1013.0
20260507044552 63 130 1.7 3.5 0.15 1.03 0.12 94 1013.0
20260507044030 63 0 0.0 1.7 0.16 1.02 0.11 94 1013.5
20260507043530 63 0 0.0 2.6 0.15 1.00 0.09 94 1013.5
20260507043041 63 0 0.0 4.3 0.15 0.99 0.08 94 1013.3
20260507042530 63 129 1.7 4.3 0.14 0.97 0.06 94 1013.1
20260507042029 63 0 0.0 2.6 0.14 0.96 0.05 94 1013.0
20260507041541 63 127 0.0 3.5 0.14 0.95 0.04 94 1013.1
20260507041030 63 0 0.9 4.3 0.14 0.93 0.02 94 1013.1
20260507040531 63 0 1.7 6.1 0.14 0.92 0.01 94 1013.1
20260507040043 63 190 1.7 7.0 0.14 0.91 0.00 93 1013.2
20260507035527 63 124 1.7 7.0 0.14 0.90 0.90 94 1013.0
20260507035030 63 140 1.7 7.0 0.15 0.89 0.89 93 1013.3
20260507034544 63 148 2.6 7.0 0.14 0.87 0.87 93 1012.9
20260507034031 64 132 2.6 5.2 0.14 0.86 0.86 93 1012.8
20260507033530 64 123 0.9 5.2 0.14 0.85 0.85 94 1012.7
20260507033044 64 120 0.9 5.2 0.14 0.84 0.84 93 1012.3
20260507032529 64 103 1.7 5.2 0.15 0.83 0.83 93 1012.5
20260507032033 64 96 0.9 3.5 0.15 0.82 0.82 93 1012.7
20260507031541 64 96 1.7 3.5 0.14 0.80 0.80 93 1012.9
20260507031030 64 78 0.9 2.6 0.14 0.79 0.79 93 1013.4
20260507030538 64 352 0.9 2.6 0.13 0.78 0.78 93 1013.4
20260507030042 64 0 0.0 2.6 0.13 0.77 0.77 93 1013.8
20260507025530 64 329 0.0 2.6 0.12 0.75 0.75 93 1013.7
20260507025030 64 327 0.0 2.6 0.12 0.74 0.74 93 1013.7
20260507024543 64 321 0.9 3.5 0.12 0.73 0.73 93 1013.7
20260507024036 64 322 1.7 4.3 0.12 0.72 0.72 93 1013.9
20260507023532 64 9 1.7 4.3 0.12 0.71 0.71 92 1013.8
20260507023045 64 37 0.0 4.3 0.11 0.69 0.69 92 1013.6
20260507022534 64 24 1.7 3.5 0.11 0.68 0.68 92 1013.6
20260507022032 64 348 0.9 3.5 0.11 0.67 0.67 92 1013.7
20260507021540 65 259 0.0 7.0 0.11 0.66 0.66 92 1013.4
20260507021032 65 0 0.0 7.0 0.11 0.65 0.65 92 1012.9
20260507020531 65 337 1.7 8.7 0.12 0.64 0.64 92 1012.8
20260507020047 65 26 3.5 8.7 0.13 0.64 0.64 92 1012.7
20260507015534 65 27 3.5 7.0 0.13 0.63 0.63 92 1012.9
20260507015032 66 30 1.7 7.8 0.13 0.62 0.62 91 1013.0
20260507014538 66 34 1.7 7.8 0.14 0.61 0.61 91 1012.9
20260507014032 66 36 4.3 13.0 0.14 0.60 0.60 91 1012.9
20260507013536 67 335 1.7 13.0 0.14 0.58 0.58 92 1012.9
20260507013057 67 43 3.5 12.2 0.15 0.58 0.58 91 1012.3
20260507012533 68 31 4.3 13.0 0.15 0.57 0.57 90 1013.0
20260507012032 69 311 7.0 13.0 0.16 0.56 0.56 90 1013.4
20260507011543 70 330 3.5 7.0 0.16 0.55 0.55 92 1013.3
20260507011031 70 0 0.0 0.0 0.16 0.52 0.52 92 1013.0
20260507010533 70 0 0.0 0.0 0.17 0.52 0.52 92 1012.8
20260507010045 70 0 0.0 0.0 0.18 0.51 0.51 92 1012.6
20260507005533 70 0 0.0 0.0 0.19 0.50 0.50 92 1012.8
20260507005030 70 0 0.0 0.0 0.20 0.49 0.49 92 1012.7
20260507004549 70 0 0.0 0.0 0.20 0.47 0.47 91 1012.6
20260507004031 70 0 0.0 0.0 0.21 0.46 0.46 91 1012.5
20260507003531 70 0 0.0 0.0 0.23 0.45 0.45 91 1012.3
20260507003038 70 0 0.0 0.0 0.23 0.43 0.43 91 1012.3
20260507002531 70 0 0.0 0.0 0.25 0.42 0.42 91 1012.2
20260507002029 70 0 0.0 0.0 0.26 0.40 0.40 91 1012.2
20260507001544 70 0 0.0 0.0 0.27 0.38 0.38 91 1012.2
20260507001029 70 0 0.0 0.0 0.29 0.37 0.37 90 1012.8
20260507000530 70 0 0.0 0.0 0.31 0.35 0.35 90 1012.5
20260507000051 70 0 0.0 1.7 0.31 0.33 0.33 90 1012.4
20260506235531 70 0 0.0 2.6 0.31 0.31 0.31 90 1012.4
20260506235030 70 220 0.0 5.2 0.29 0.29 0.29 90 1012.5
20260506234542 70 220 1.7 6.1 0.27 0.27 0.27 89 1012.6
20260506234030 70 200 2.6 7.0 0.24 0.24 0.24 89 1012.3
20260506233529 70 220 3.5 7.0 0.22 0.22 0.22 89 1012.4
20260506233039 70 200 2.6 7.0 0.19 0.19 0.19 88 1012.3
20260506232528 70 208 1.7 6.1 0.16 0.16 0.16 87 1012.3
20260506232028 70 234 3.5 13.9 0.14 0.14 0.14 86 1012.6
20260506231540 71 269 2.6 18.2 0.10 0.10 0.10 85 1012.5
20260506231027 72 254 7.8 18.2 0.07 0.07 0.07 83 1012.5
20260506230527 75 204 6.1 18.2 0.04 0.04 0.04 81 1013.3
20260506230039 76 218 2.6 7.8 0.02 0.02 0.02 77 1012.3
20260506225529 76 213 2.6 7.8 0.00 0.00 0.00 75 1011.6
20260506225029 77 224 2.6 5.2 0.00 0.00 0.00 73 1011.6
20260506224556 77 207 2.6 5.2 0.00 0.00 0.00 73 1011.5
20260506224028 77 223 1.7 7.8 0.00 0.00 0.00 73 1011.5
20260506223529 77 0 1.7 7.8 0.00 0.00 0.00 72 1011.5
20260506223041 77 207 1.7 6.1 0.00 0.00 0.00 72 1011.9
20260506222533 77 211 2.6 6.1 0.00 0.00 0.00 72 1012.1
20260506222029 77 221 0.9 7.8 0.00 0.00 0.00 71 1012.2
20260506221538 77 225 2.6 7.8 0.00 0.00 0.00 71 1012.3
20260506221029 77 225 1.7 7.8 0.00 0.00 0.00 70 1012.1
20260506220529 77 238 2.6 7.8 0.00 0.00 0.00 70 1012.0
20260506220044 78 194 3.5 7.8 0.00 0.00 0.00 70 1012.1
20260506215529 78 233 2.6 8.7 0.00 0.00 0.00 69 1012.1
20260506215029 78 207 4.3 8.7 0.00 0.00 0.00 69 1012.1
20260506214542 78 219 3.5 13.0 0.00 0.00 0.00 69 1012.1
20260506214028 78 232 4.3 13.0 0.00 0.00 0.00 68 1012.0
20260506213534 78 223 7.0 13.0 0.00 0.00 0.00 68 1012.0
20260506213044 78 192 6.1 13.9 0.00 0.00 0.00 68 1012.0
20260506212534 78 209 5.2 13.9 0.00 0.00 0.00 68 1011.9
20260506212033 79 218 5.2 11.3 0.00 0.00 0.00 68 1011.9
20260506211540 79 210 2.6 12.2 0.00 0.00 0.00 68 1011.8
20260506211032 79 224 4.3 12.2 0.00 0.00 0.00 68 1011.7
20260506210530 78 199 6.1 12.2 0.00 0.00 0.00 68 1011.8
20260506210041 78 187 3.5 10.4 0.00 0.00 0.00 68 1012.1
20260506205532 78 227 4.3 10.4 0.00 0.00 0.00 67 1012.1
20260506205032 79 185 3.5 8.7 0.00 0.00 0.00 67 1012.1
20260506204539 79 193 1.7 10.4 0.00 0.00 0.00 67 1012.2
20260506204032 79 204 5.2 11.3 0.00 0.00 0.00 66 1012.2
20260506203531 79 260 6.1 13.0 0.00 0.00 0.00 65 1012.3
20260506203047 79 193 7.0 14.8 0.00 0.00 0.00 65 1012.4
20260506202534 80 221 7.8 14.8 0.00 0.00 0.00 64 1012.6
20260506202033 80 205 6.1 14.8 0.00 0.00 0.00 64 1012.7
20260506201542 80 205 6.1 14.8 0.00 0.00 0.00 64 1012.7
20260506201034 80 198 3.5 10.4 0.00 0.00 0.00 64 1012.7
20260506200531 81 192 5.2 12.2 0.00 0.00 0.00 64 1012.6
20260506200041 80 234 4.3 12.2 0.00 0.00 0.00 64 1012.8
20260506195532 80 199 4.3 12.2 0.00 0.00 0.00 64 1012.7
20260506195031 80 200 6.1 11.3 0.00 0.00 0.00 64 1012.9
20260506194555 80 223 4.3 11.3 0.00 0.00 0.00 64 1012.9
20260506194035 80 150 3.5 13.9 0.00 0.00 0.00 65 1013.0
20260506193536 80 190 6.1 13.9 0.00 0.00 0.00 64 1013.0
20260506193037 80 206 4.3 10.4 0.00 0.00 0.00 65 1013.1
20260506192532 79 235 3.5 9.6 0.00 0.00 0.00 65 1013.2
20260506192032 80 213 5.2 10.4 0.00 0.00 0.00 65 1013.3
20260506191545 79 209 4.3 12.2 0.00 0.00 0.00 65 1013.3
20260506191033 79 214 5.2 12.2 0.00 0.00 0.00 66 1013.4
20260506190535 78 202 3.5 8.7 0.00 0.00 0.00 67 1013.6
20260506190044 78 209 3.5 7.0 0.00 0.00 0.00 67 1013.8
20260506185531 78 202 3.5 9.6 0.00 0.00 0.00 67 1013.8
20260506185030 78 205 3.5 12.2 0.00 0.00 0.00 66 1013.8
20260506184539 79 205 6.1 12.2 0.00 0.00 0.00 65 1014.0
20260506184032 79 212 4.3 12.2 0.00 0.00 0.00 65 1014.0
20260506183532 79 177 5.2 9.6 0.00 0.00 0.00 66 1014.1
20260506183038 79 229 1.7 9.6 0.00 0.00 0.00 66 1014.2
20260506182531 79 242 3.5 9.6 0.00 0.00 0.00 65 1014.1
20260506182034 79 195 4.3 8.7 0.00 0.00 0.00 65 1014.3
20260506181546 79 178 4.3 8.7 0.00 0.00 0.00 64 1014.3
20260506181031 80 221 5.2 9.6 0.00 0.00 0.00 64 1014.3
20260506180532 80 219 6.1 11.3 0.00 0.00 0.00 64 1014.3
20260506180050 80 237 6.1 13.0 0.00 0.00 0.00 63 1014.3
20260506175536 80 219 6.1 12.2 0.00 0.00 0.00 64 1014.2
20260506175030 80 210 4.3 12.2 0.00 0.00 0.00 65 1014.1
20260506174540 79 186 6.1 15.6 0.00 0.00 0.00 65 1014.0
20260506174032 79 247 6.1 15.6 0.00 0.00 0.00 65 1014.0
20260506173531 79 215 6.1 11.3 0.00 0.00 0.00 65 1014.1
20260506173048 79 214 1.7 8.7 0.00 0.00 0.00 66 1014.0
20260506172531 79 191 5.2 8.7 0.00 0.00 0.00 65 1014.0
20260506172030 79 197 3.5 11.3 0.00 0.00 0.00 66 1014.0
20260506171552 79 211 5.2 13.9 0.00 0.00 0.00 65 1014.0
20260506171035 79 217 7.0 13.9 0.00 0.00 0.00 65 1013.9
20260506170533 79 233 3.5 10.4 0.00 0.00 0.00 66 1014.0
20260506170040 79 207 3.5 10.4 0.00 0.00 0.00 66 1014.0
20260506165534 79 191 2.6 10.4 0.00 0.00 0.00 67 1014.1
20260506165035 78 213 3.5 13.9 0.00 0.00 0.00 67 1014.1
20260506164541 78 226 5.2 13.9 0.00 0.00 0.00 67 1014.1
20260506164034 78 193 7.0 13.9 0.00 0.00 0.00 67 1014.2
20260506163529 78 186 5.2 13.0 0.00 0.00 0.00 68 1014.2
20260506163049 78 213 7.0 13.0 0.00 0.00 0.00 69 1014.2
20260506162532 76 203 4.3 11.3 0.00 0.00 0.00 71 1014.2
20260506162033 75 131 3.5 8.7 0.00 0.00 0.00 72 1014.1
20260506161540 74 199 3.5 7.8 0.00 0.00 0.00 74 1014.3
20260506161031 74 189 3.5 9.6 0.00 0.00 0.00 75 1014.6
20260506160531 73 231 4.3 9.6 0.00 0.00 0.00 75 1014.7
20260506160044 73 215 4.3 9.6 0.00 0.00 0.00 76 1014.7
20260506155531 72 216 5.2 9.6 0.00 0.00 0.00 77 1014.9
20260506155031 71 205 3.5 7.8 0.00 0.00 0.00 77 1015.1
20260506154542 71 226 2.6 7.0 0.00 0.00 0.00 78 1015.1
20260506154032 70 219 2.6 7.8 0.00 0.00 0.00 79 1015.1
20260506153531 70 243 3.5 7.8 0.00 0.00 0.00 79 1015.1
20260506153043 70 244 3.5 7.8 0.00 0.00 0.00 81 1015.1
20260506152532 69 202 1.7 5.2 0.00 0.00 0.00 81 1015.3
20260506152031 69 205 1.7 7.0 0.00 0.00 0.00 81 1015.4
20260506151551 69 205 1.7 8.7 0.00 0.00 0.00 82 1015.7
20260506151032 68 255 3.5 8.7 0.00 0.00 0.00 81 1015.8
20260506150532 68 214 2.6 6.1 0.00 0.00 0.00 81 1015.3
20260506150042 68 207 3.5 7.8 0.00 0.00 0.00 81 1015.2
20260506145533 68 221 3.5 9.6 0.00 0.00 0.00 81 1015.5
20260506145032 69 192 3.5 9.6 0.00 0.00 0.00 80 1015.6
20260506144559 69 220 4.3 7.8 0.00 0.00 0.00 79 1015.6
20260506144033 69 234 3.5 7.8 0.00 0.00 0.00 79 1015.5
20260506143533 69 227 2.6 8.7 0.00 0.00 0.00 78 1015.3
20260506143038 69 236 3.5 8.7 0.00 0.00 0.00 77 1015.4
20260506142531 69 208 2.6 12.2 0.00 0.00 0.00 77 1015.3
20260506142030 69 238 5.2 12.2 0.00 0.00 0.00 77 1015.3
20260506141541 69 250 2.6 11.3 0.00 0.00 0.00 77 1015.3
20260506141034 69 227 4.3 11.3 0.00 0.00 0.00 77 1015.2
20260506140531 69 215 3.5 12.2 0.00 0.00 0.00 77 1015.2
20260506140055 70 204 4.3 12.2 0.00 0.00 0.00 77 1015.1
20260506135531 70 214 4.3 11.3 0.00 0.00 0.00 77 1014.8
20260506135031 70 202 5.2 10.4 0.00 0.00 0.00 77 1014.7
20260506134544 70 207 4.3 11.3 0.00 0.00 0.00 77 1014.5
20260506134031 70 219 4.3 11.3 0.00 0.00 0.00 77 1014.2
20260506133531 69 200 1.7 12.2 0.00 0.00 0.00 78 1014.3
20260506133045 69 223 4.3 12.2 0.00 0.00 0.00 78 1014.3
20260506132530 69 202 5.2 11.3 0.00 0.00 0.00 78 1014.3
20260506132031 69 205 3.5 9.6 0.00 0.00 0.00 78 1014.2
20260506131543 69 187 5.2 10.4 0.00 0.00 0.00 78 1014.2
20260506131031 68 182 5.2 10.4 0.00 0.00 0.00 78 1014.3
20260506130530 68 195 2.6 9.6 0.00 0.00 0.00 79 1014.2
20260506130045 68 203 3.5 9.6 0.00 0.00 0.00 79 1014.1
20260506125531 68 221 3.5 9.6 0.00 0.00 0.00 79 1014.1
20260506125031 68 207 4.3 9.6 0.00 0.00 0.00 79 1014.1
20260506124541 68 213 3.5 7.8 0.00 0.00 0.00 80 1014.2
20260506124028 68 200 1.7 7.8 0.00 0.00 0.00 80 1014.1
20260506123532 67 209 3.5 7.8 0.00 0.00 0.00 80 1014.1
20260506123050 67 0 1.7 7.0 0.00 0.00 0.00 80 1014.0
20260506122532 67 165 2.6 7.8 0.00 0.00 0.00 80 1014.0
20260506122031 67 210 4.3 7.8 0.00 0.00 0.00 80 1014.0
20260506121537 67 225 2.6 6.1 0.00 0.00 0.00 80 1014.2
20260506121033 67 223 2.6 6.1 0.00 0.00 0.00 80 1014.1
20260506120533 67 217 2.6 7.8 0.00 0.00 0.00 80 1014.1
20260506120050 67 224 2.6 7.8 0.00 0.00 0.00 80 1013.8
20260506115532 67 189 2.6 7.8 0.00 0.00 0.00 80 1013.8
20260506115031 67 191 3.5 7.0 0.00 0.00 0.00 80 1013.9
20260506114542 67 196 3.5 8.7 0.00 0.00 0.00 80 1014.0
20260506114031 67 182 3.5 8.7 0.00 0.00 0.00 80 1013.8
20260506113532 67 196 2.6 7.8 0.00 0.00 0.00 80 1013.9
20260506113047 67 204 3.5 7.8 0.00 0.00 0.00 80 1013.7
20260506112530 67 222 2.6 7.8 0.00 0.00 0.00 80 1013.6
20260506112031 67 209 2.6 8.7 0.00 0.00 0.00 80 1013.4
20260506111537 67 211 3.5 9.6 0.00 0.00 0.00 80 1013.5
20260506111033 67 195 3.5 9.6 0.00 0.00 0.00 80 1013.5
20260506110533 67 217 2.6 8.7 0.00 0.00 0.00 80 1013.5
20260506110038 67 211 2.6 7.0 0.00 0.00 0.00 81 1013.4
20260506105530 67 193 2.6 6.1 0.00 0.00 0.00 80 1013.4
20260506105031 67 191 2.6 6.1 0.00 0.00 0.00 80 1013.5
20260506104549 67 211 3.5 6.1 0.00 0.00 0.00 80 1013.5
20260506104032 67 207 1.7 7.0 0.00 0.00 0.00 80 1013.3
20260506103531 67 202 1.7 7.0 0.00 0.00 0.00 79 1013.2
20260506103043 67 251 2.6 7.0 0.00 0.00 0.00 79 1013.2
20260506102529 67 216 3.5 7.0 0.00 0.00 0.00 79 1013.1
20260506102031 67 230 2.6 8.7 0.00 0.00 0.00 79 1013.0
20260506101547 67 232 3.5 8.7 0.00 0.00 0.00 78 1013.0
20260506101028 67 217 4.3 9.6 0.00 0.00 0.00 78 1013.1
20260506100531 67 195 4.3 9.6 0.00 0.00 0.00 78 1012.9
20260506100040 67 194 4.3 9.6 0.00 0.00 0.00 78 1012.7
20260506095528 67 223 4.3 8.7 0.00 0.00 0.00 77 1012.7
20260506095033 67 215 3.5 10.4 0.00 0.00 0.00 77 1012.7
20260506094536 67 182 6.1 10.4 0.00 0.00 0.00 77 1012.4
20260506094031 67 204 4.3 8.7 0.00 0.00 0.00 76 1012.2
20260506093531 67 269 3.5 13.0 0.00 0.00 0.00 76 1012.3
20260506093042 67 159 5.2 13.0 0.00 0.00 0.00 76 1012.2
20260506092532 67 209 5.2 13.9 0.00 0.00 0.00 75 1012.4
20260506092031 67 219 6.1 13.9 0.00 0.00 0.00 75 1012.3
20260506091541 68 219 2.6 8.7 0.00 0.00 0.00 74 1012.1
20260506091031 68 246 4.3 8.7 0.00 0.00 0.00 74 1012.4
20260506090533 68 215 2.6 7.0 0.00 0.00 0.00 73 1012.4
20260506090040 68 220 3.5 15.6 0.00 0.00 0.00 73 1012.3
20260506085531 68 172 6.1 15.6 0.00 0.00 0.00 73 1012.2
20260506085028 68 171 4.3 12.2 0.00 0.00 0.00 72 1012.3
20260506084542 68 198 5.2 12.2 0.00 0.00 0.00 72 1012.4
20260506084031 68 223 2.6 10.4 0.00 0.00 0.00 71 1012.5
20260506083532 68 197 4.3 10.4 0.00 0.00 0.00 71 1012.4
20260506083043 68 188 3.5 7.8 0.00 0.00 0.00 71 1012.3
20260506082531 68 218 2.6 7.8 0.00 0.00 0.00 70 1012.2